{"data":{"norad_id":60463,"epoch":"2026-05-25T02:48:06.539904Z","epoch_age_seconds":55039,"freshness":"FRESH","line1":"1 60463U 24148F   26145.11674236  .00013327  00000+0  42221-3 0  9995","line2":"2 60463  34.9924 295.4036 0008030   3.6824 356.3951 15.31864822 98745","mean_motion":15.31864822,"eccentricity":0.000803,"inclination_deg":34.9924,"raan_deg":295.4036,"arg_perigee_deg":3.6824,"mean_anomaly_deg":356.3951,"bstar":0.00042221,"rev_number":9874,"period_min":94.003072550484,"perigee_km":464.74945974666,"apogee_km":475.7479672025,"semimajor_km":6848.3857134746,"source":"CELESTRAK","updated_at":"2026-05-25T13:38:02.086015Z"}}